Location: Chircca
(13.7944°S, 72.0608°W)
Time: 06:23:05
(UTC+00:00)

Atlas Centaur 2 - Pass Details

Date: 14 July 2020
Orbit: 459 x 1310 km, 30.4° (Epoch: 14 August)

Event Time Altitude Azimuth Distance (km) Brightness Sun altitude
Exits shadow 10:23:00 11° 226° (SW) 3,198 4.6 -12.1°
Maximum altitude 10:28:53 23° 179° (S) 2,348 4.3 -10.8°
Drops below altitude 10° 10:34:42 10° 130° (SE) 3,001 5.5 -9.5°
Sets 10:37:59 0° 115° (ESE) 3,821 6.3 -8.7°
